Terminal Aerodrome Forecast
Issued by NWS Nashville, TN

Home | Current Version | Previous Version | Text Only | Print | Product List | Glossary On
Versions: 1 2 3 4 5 6 7 8 9 10 11 12 13 14 15 16 17 18
025
FTUS44 KOHX 282056 AAA
TAFBNA
TAF AMD
KBNA 282056Z 2821/2918 18013G23KT P6SM BKN035 OVC120
     FM290000 18013KT P6SM BKN040
     FM290800 18010KT P6SM OVC025=

USA.gov is the U.S. government's official web portal to all federal, state and local government web resources and services.